sat.trackr.live / text

‹ back to catalog

UNKNOWN

NORAD 85217

UNKNOWN UNKNOWN UNKNOWN

§ Identity

Operator
Country
Launch date
Launch site
Launch vehicle
Mass (kg)
RCS (m²)

External: N2YO · Heavens-Above

§ Orbital elements

Epoch: 2026-09-17T11:51:05.089824Z

Period
100.11 min
Inclination
98.0204°
Eccentricity
0.0204682
Mean motion
14.38369158 rev/d
Perigee alt
617.7 km
Apogee alt
910.1 km
Semi-major
7,142.0 km
B*
2.4823e-4
RAAN
341.7579°
Arg perigee
5.3727°
Mean anomaly
354.9591°
Rev number
66,791

§ Raw data

UNKNOWN1 85217U          26260.49380891  .00000918  00000+0  24823-3 0  99902 85217  98.0204 341.7579 0204682   5.3727 354.9591 14.38369158667913

JSON: /api/v1/satellites/85217 · /tle

For live sub-satellite position, see the globe view (requires WebGL).

§ Visibility from observer

Set your observer location to see the next 7 days of passes ≥ 10°. The values pass through the URL so the page stays shareable.

No JS? Fill the form by hand. The geolocation button needs JavaScript.